15-11-2023, 00:00:09,    231,    0.8,    7.8,   0.00,   0.00, 1009.2,    0.4, -999.0
15-11-2023, 00:00:19,    231,    0.0,    7.7,   0.00,   0.00, 1009.0,    0.4, -999.0
15-11-2023, 00:00:29,    231,    0.0,    7.7,   0.00,   0.00, 1009.0,    0.2, -999.0
15-11-2023, 00:00:38,    231,    0.0,    7.7,   0.00,   0.00, 1009.0,    0.4, -999.0
15-11-2023, 00:00:49,    231,    0.0,    7.7,   0.00,   0.00, 1009.0,    0.4, -999.0
15-11-2023, 00:00:59,    232,    0.3,    7.7,   0.00,   0.00, 1009.1,    0.7, -999.0
15-11-2023, 00:01:08,    234,    0.1,    7.8,   0.00,   0.00, 1009.1,    0.3, -999.0
15-11-2023, 00:01:18,    230,    0.5,    7.7,   0.00,   0.00, 1009.1,    0.8, -999.0
15-11-2023, 00:01:29,    218,    1.1,    7.8,   0.00,   0.00, 1009.2,    0.6, -999.0
15-11-2023, 00:01:38,    226,    0.9,    7.8,   0.00,   0.00, 1009.2,    0.8, -999.0
15-11-2023, 00:01:48,    227,    1.1,    7.8,   0.00,   0.00, 1009.2,    0.2, -999.0
15-11-2023, 00:01:58,    228,    0.9,    7.7,   0.00,   0.00, 1009.2,    0.2, -999.0
15-11-2023, 00:02:08,    227,    0.5,    7.7,   0.00,   0.00, 1009.1,    0.8, -999.0
15-11-2023, 00:02:18,    227,    0.0,    7.6,   0.00,   0.00, 1009.0,    0.3, -999.0
15-11-2023, 00:02:28,    228,    0.0,    7.6,   0.00,   0.00, 1009.0,    0.4, -999.0
15-11-2023, 00:02:38,    228,    0.4,    7.6,   0.00,   0.00, 1009.2,    0.6, -999.0
15-11-2023, 00:02:48,    230,    1.4,    7.7,   0.00,   0.00, 1009.2,    0.6, -999.0
15-11-2023, 00:02:58,    265,    3.3,    7.6,   0.00,   0.00, 1009.2,    0.7, -999.0
15-11-2023, 00:03:08,    260,    2.0,    7.7,   0.00,   0.00, 1009.2,    0.5, -999.0
15-11-2023, 00:03:18,    236,    1.2,    7.7,   0.00,   0.00, 1009.2,    0.5, -999.0
15-11-2023, 00:03:28,    274,    1.7,    7.7,   0.00,   0.00, 1009.2,    0.5, -999.0
15-11-2023, 00:03:38,    249,    1.0,    7.7,   0.00,   0.00, 1009.2,    0.5, -999.0
15-11-2023, 00:03:48,    242,    2.3,    7.7,   0.00,   0.00, 1009.2,    0.7, -999.0
15-11-2023, 00:03:58,    237,    1.2,    7.8,   0.00,   0.00, 1009.2,    0.5, -999.0
15-11-2023, 00:04:08,    237,    0.2,    7.7,   0.00,   0.00, 1009.1,    0.6, -999.0
15-11-2023, 00:04:18,    237,    0.4,    7.8,   0.00,   0.00, 1009.2,    0.4, -999.0
15-11-2023, 00:04:28,    240,    1.2,    7.8,   0.00,   0.00, 1009.2,    0.6, -999.0
15-11-2023, 00:04:38,    260,    1.9,    7.7,   0.00,   0.00, 1009.2,    0.7, -999.0
15-11-2023, 00:04:48,    256,    1.7,    7.7,   0.00,   0.00, 1009.2,    0.4, -999.0
15-11-2023, 00:04:58,    233,    2.6,    7.8,   0.00,   0.00, 1009.2,    0.5, -999.0
15-11-2023, 00:05:08,    275,    2.6,    7.8,   0.00,   0.00, 1009.2,    0.5, -999.0
15-11-2023, 00:05:18,    246,    3.9,    7.8,   0.00,   0.00, 1009.2,    0.4, -999.0
15-11-2023, 00:05:28,    224,    3.3,    7.9,   0.00,   0.00, 1009.2,    0.6, -999.0
15-11-2023, 00:05:38,    264,    2.2,    7.9,   0.00,   0.00, 1009.2,    0.5, -999.0
15-11-2023, 00:05:48,    255,    0.8,    7.8,   0.00,   0.00, 1009.2,    0.6, -999.0
15-11-2023, 00:05:58,    232,    0.1,    7.8,   0.00,   0.00, 1009.1,    0.3, -999.0
15-11-2023, 00:06:08,    232,    0.0,    7.7,   0.00,   0.00, 1009.1,    0.3, -999.0
15-11-2023, 00:06:18,    231,    0.0,    7.7,   0.00,   0.00, 1009.1,    0.7, -999.0
15-11-2023, 00:06:28,    232,    0.0,    7.7,   0.00,   0.00, 1009.1,    0.5, -999.0
15-11-2023, 00:06:38,    234,    0.4,    7.8,   0.00,   0.00, 1009.2,    0.8, -999.0
15-11-2023, 00:06:48,    225,    0.5,    7.8,   0.00,   0.00, 1009.2,    0.4, -999.0
15-11-2023, 00:06:58,    233,    1.9,    7.7,   0.00,   0.00, 1009.2,    0.7, -999.0
15-11-2023, 00:07:08,    275,    2.4,    7.8,   0.00,   0.00, 1009.2,    0.4, -999.0
15-11-2023, 00:07:18,    274,    0.5,    7.7,   0.00,   0.00, 1009.2,    0.5, -999.0
15-11-2023, 00:07:28,    274,    0.0,    7.7,   0.00,   0.00, 1009.1,    0.5, -999.0
15-11-2023, 00:07:37,    274,    0.7,    7.7,   0.00,   0.00, 1009.2,    0.7, -999.0
15-11-2023, 00:07:48,    270,    0.1,    7.7,   0.00,   0.00, 1009.2,    0.5, -999.0
15-11-2023, 00:07:58,    273,    0.9,    7.7,   0.00,   0.00, 1009.2,    0.6, -999.0
15-11-2023, 00:08:07,    272,    0.4,    7.7,   0.00,   0.00, 1009.2,    0.7, -999.0
15-11-2023, 00:08:17,    262,    1.9,    7.7,   0.00,   0.00, 1009.2,    0.5, -999.0
15-11-2023, 00:08:28,    270,    2.2,    7.8,   0.00,   0.00, 1009.3,    0.5, -999.0
15-11-2023, 00:08:37,    274,    1.2,    7.7,   0.00,   0.00, 1009.3,    0.8, -999.0
15-11-2023, 00:08:47,    274,    0.1,    7.7,   0.00,   0.00, 1009.2,    0.3, -999.0
15-11-2023, 00:08:57,    274,    0.0,    7.6,   0.00,   0.00, 1009.1,    0.5, -999.0
15-11-2023, 00:09:08,    274,    0.0,    7.6,   0.00,   0.00, 1009.1,    0.5, -999.0
15-11-2023, 00:09:17,    274,    0.0,    7.7,   0.00,   0.00, 1009.1,    0.5, -999.0
15-11-2023, 00:09:27,    274,    0.0,    7.6,   0.00,   0.00, 1009.2,    0.4, -999.0
15-11-2023, 00:09:38,    274,    0.0,    7.6,   0.00,   0.00, 1009.1,    0.3, -999.0
15-11-2023, 00:09:47,    274,    0.0,    7.7,   0.00,   0.00, 1009.1,    0.4, -999.0
15-11-2023, 00:09:57,    274,    0.0,    7.7,   0.00,   0.00, 1009.1,    0.5, -999.0
15-11-2023, 00:10:07,    258,    0.8,    7.6,   0.00,   0.00, 1009.2,    0.7, -999.0
15-11-2023, 00:10:17,    247,    1.1,    7.7,   0.00,   0.00, 1009.3,    0.6, -999.0
15-11-2023, 00:10:27,    247,    0.0,    7.7,   0.00,   0.00, 1009.2,    0.3, -999.0
15-11-2023, 00:10:37,    229,    1.1,    7.7,   0.00,   0.00, 1009.3,    0.8, -999.0
15-11-2023, 00:10:47,    267,    1.5,    7.7,   0.00,   0.00, 1009.3,    0.6, -999.0
15-11-2023, 00:10:57,    257,    0.8,    7.7,   0.00,   0.00, 1009.3,    0.5, -999.0
15-11-2023, 00:11:07,    257,    0.0,    7.7,   0.00,   0.00, 1009.2,    0.4, -999.0
15-11-2023, 00:11:17,    258,    0.0,    7.7,   0.00,   0.00, 1009.2,    0.7, -999.0
15-11-2023, 00:11:27,    257,    0.0,    7.6,   0.00,   0.00, 1009.2,    0.4, -999.0
15-11-2023, 00:11:37,    280,    1.4,    7.7,   0.00,   0.00, 1009.3,    0.6, -999.0
15-11-2023, 00:11:47,    263,    1.4,    7.6,   0.00,   0.00, 1009.4,    0.6, -999.0
15-11-2023, 00:11:57,    254,    2.6,    7.6,   0.00,   0.00, 1009.4,    0.5, -999.0
15-11-2023, 00:12:07,    254,    0.1,    7.6,   0.00,   0.00, 1009.3,    0.3, -999.0
15-11-2023, 00:12:17,    248,    0.3,    7.7,   0.00,   0.00, 1009.3,    0.6, -999.0
15-11-2023, 00:12:27,    229,    0.6,    7.6,   0.00,   0.00, 1009.3,    0.5, -999.0
15-11-2023, 00:12:37,    230,    1.6,    7.7,   0.00,   0.00, 1009.4,    0.7, -999.0
15-11-2023, 00:12:47,    230,    1.2,    7.7,   0.00,   0.00, 1009.3,    0.6, -999.0
15-11-2023, 00:12:57,    250,    1.0,    7.7,   0.00,   0.00, 1009.4,    0.7, -999.0
15-11-2023, 00:13:07,    256,    2.4,    7.7,   0.00,   0.00, 1009.4,    0.5, -999.0
15-11-2023, 00:13:17,    226,    1.7,    7.7,   0.00,   0.00, 1009.4,    0.6, -999.0
15-11-2023, 00:13:27,    253,    2.2,    7.7,   0.00,   0.00, 1009.4,    0.6, -999.0
15-11-2023, 00:13:37,    258,    1.4,    7.8,   0.00,   0.00, 1009.4,    0.6, -999.0
15-11-2023, 00:13:47,    245,    1.8,    7.8,   0.00,   0.00, 1009.4,    0.5, -999.0
15-11-2023, 00:13:57,    261,    1.6,    7.7,   0.00,   0.00, 1009.4,    0.4, -999.0
15-11-2023, 00:14:07,    261,    0.4,    7.8,   0.00,   0.00, 1009.3,    0.6, -999.0
15-11-2023, 00:14:17,    261,    0.0,    7.6,   0.00,   0.00, 1009.2,    0.5, -999.0
15-11-2023, 00:14:27,    263,    0.0,    7.6,   0.00,   0.00, 1009.2,    0.6, -999.0
15-11-2023, 00:14:36,    235,    1.5,    7.7,   0.00,   0.00, 1009.3,    0.7, -999.0
15-11-2023, 00:14:47,    232,    1.9,    7.7,   0.00,   0.00, 1009.4,    1.0, -999.0
15-11-2023, 00:14:57,    234,    0.6,    7.8,   0.00,   0.00, 1009.4,    1.1, -999.0
15-11-2023, 00:15:06,    234,    0.7,    7.8,   0.00,   0.00, 1009.4,    0.5, -999.0
15-11-2023, 00:15:16,    234,    0.2,    7.8,   0.00,   0.00, 1009.3,    0.2, -999.0
15-11-2023, 00:15:27,    234,    0.0,    7.7,   0.00,   0.00, 1009.2,    0.4, -999.0
15-11-2023, 00:15:37,    234,    0.0,    7.7,   0.00,   0.00, 1009.2,    0.3, -999.0
15-11-2023, 00:15:46,    236,    0.6,    7.7,   0.00,   0.00, 1009.4,    0.6, -999.0
15-11-2023, 00:15:56,    225,    1.4,    7.8,   0.00,   0.00, 1009.4,    0.4, -999.0
15-11-2023, 00:16:07,    262,    1.1,    7.8,   0.00,   0.00, 1009.4,    0.6, -999.0
15-11-2023, 00:16:16,    229,    1.0,    7.8,   0.00,   0.00, 1009.4,    0.4, -999.0
15-11-2023, 00:16:26,    220,    0.6,    7.8,   0.00,   0.00, 1009.4,    0.4, -999.0
15-11-2023, 00:16:37,    225,    1.2,    7.8,   0.00,   0.00, 1009.4,    0.7, -999.0
15-11-2023, 00:16:46,    224,    0.7,    7.8,   0.00,   0.00, 1009.4,    0.5, -999.0
15-11-2023, 00:16:56,    225,    0.1,    7.7,   0.00,   0.00, 1009.3,    0.9, -999.0
15-11-2023, 00:17:06,    226,    0.4,    7.7,   0.00,   0.00, 1009.4,    0.5, -999.0
15-11-2023, 00:17:17,    237,    1.5,    7.7,   0.00,   0.00, 1009.4,    0.5, -999.0
15-11-2023, 00:17:26,    266,    3.0,    7.8,   0.00,   0.00, 1009.4,    0.8, -999.0
15-11-2023, 00:17:36,    255,    2.0,    7.8,   0.00,   0.00, 1009.4,    0.6, -999.0
15-11-2023, 00:17:46,    197,    0.9,    7.8,   0.00,   0.00, 1009.4,    0.7, -999.0
15-11-2023, 00:17:56,    197,    0.0,    7.7,   0.00,   0.00, 1009.3,    0.5, -999.0
15-11-2023, 00:18:06,    198,    0.0,    7.6,   0.00,   0.00, 1009.3,    0.6, -999.0
15-11-2023, 00:18:16,    205,    0.0,    7.7,   0.00,   0.00, 1009.3,    0.5, -999.0
15-11-2023, 00:18:26,    210,    0.4,    7.7,   0.00,   0.00, 1009.4,    0.4, -999.0
15-11-2023, 00:18:36,    210,    0.0,    7.6,   0.00,   0.00, 1009.3,    0.5, -999.0
15-11-2023, 00:18:46,    197,    0.7,    7.7,   0.00,   0.00, 1009.4,    0.8, -999.0
15-11-2023, 00:18:56,    197,    0.0,    7.6,   0.00,   0.00, 1009.3,    0.4, -999.0
15-11-2023, 00:19:06,    198,    0.0,    7.6,   0.00,   0.00, 1009.2,    0.4, -999.0
15-11-2023, 00:19:16,    197,    0.0,    7.6,   0.00,   0.00, 1009.3,    0.6, -999.0
15-11-2023, 00:19:26,    197,    0.0,    7.5,   0.00,   0.00, 1009.3,    0.5, -999.0
15-11-2023, 00:19:36,    200,    0.0,    7.6,   0.00,   0.00, 1009.3,    0.6, -999.0
15-11-2023, 00:19:46,    235,    1.6,    7.6,   0.00,   0.00, 1009.4,    0.3, -999.0
15-11-2023, 00:19:56,    237,    1.9,    7.7,   0.00,   0.00, 1009.4,    0.3, -999.0
15-11-2023, 00:20:06,    205,    1.9,    7.7,   0.00,   0.00, 1009.4,    0.3, -999.0
15-11-2023, 00:20:16,    207,    0.6,    7.6,   0.00,   0.00, 1009.4,    0.5, -999.0
15-11-2023, 00:20:26,    210,    0.3,    7.5,   0.00,   0.00, 1009.4,    0.5, -999.0
15-11-2023, 00:20:36,    209,    0.5,    7.6,   0.00,   0.00, 1009.4,    0.5, -999.0
15-11-2023, 00:20:46,    212,    0.0,    7.6,   0.00,   0.00, 1009.4,    0.3, -999.0
15-11-2023, 00:20:56,    213,    0.3,    7.7,   0.00,   0.00, 1009.4,    0.5, -999.0
15-11-2023, 00:21:06,    213,    0.1,    7.6,   0.00,   0.00, 1009.4,    0.4, -999.0
15-11-2023, 00:21:16,    213,    0.3,    7.6,   0.00,   0.00, 1009.4,    0.4, -999.0
15-11-2023, 00:21:26,    233,    0.8,    7.6,   0.00,   0.00, 1009.4,    0.5, -999.0
15-11-2023, 00:21:36,    235,    1.6,    7.7,   0.00,   0.00, 1009.4,    0.6, -999.0
15-11-2023, 00:21:46,    235,    0.9,    7.7,   0.00,   0.00, 1009.4,    0.4, -999.0
15-11-2023, 00:21:56,    239,    0.9,    7.6,   0.00,   0.00, 1009.4,    0.6, -999.0
15-11-2023, 00:22:06,    209,    1.2,    7.6,   0.00,   0.00, 1009.4,    0.4, -999.0
15-11-2023, 00:22:15,    210,    0.5,    7.6,   0.00,   0.00, 1009.4,    0.6, -999.0
15-11-2023, 00:22:26,    261,    2.8,    7.5,   0.00,   0.00, 1009.4,    0.6, -999.0
15-11-2023, 00:22:36,    260,    1.8,    7.7,   0.00,   0.00, 1009.4,    0.6, -999.0
15-11-2023, 00:22:45,    266,    1.3,    7.7,   0.00,   0.00, 1009.5,    0.7, -999.0
15-11-2023, 00:22:55,    263,    0.9,    7.7,   0.00,   0.00, 1009.4,    0.3, -999.0
15-11-2023, 00:23:06,    249,    1.9,    7.7,   0.00,   0.00, 1009.5,    0.6, -999.0
15-11-2023, 00:23:15,    250,    0.7,    7.6,   0.00,   0.00, 1009.5,    0.5, -999.0
15-11-2023, 00:23:25,    249,    0.1,    7.5,   0.00,   0.00, 1009.5,    0.5, -999.0
15-11-2023, 00:23:36,    249,    0.0,    7.6,   0.00,   0.00, 1009.4,    0.7, -999.0
15-11-2023, 00:23:46,    249,    0.0,    7.5,   0.00,   0.00, 1009.4,    0.5, -999.0
15-11-2023, 00:23:55,    232,    0.2,    7.5,   0.00,   0.00, 1009.5,    0.4, -999.0
15-11-2023, 00:24:05,    228,    1.3,    7.6,   0.00,   0.00, 1009.5,    0.5, -999.0
15-11-2023, 00:24:16,    228,    0.3,    7.6,   0.00,   0.00, 1009.5,    0.6, -999.0
15-11-2023, 00:24:25,    228,    0.4,    7.5,   0.00,   0.00, 1009.5,    0.4, -999.0
15-11-2023, 00:24:35,    228,    0.1,    7.6,   0.00,   0.00, 1009.5,    0.5, -999.0
15-11-2023, 00:24:45,    228,    0.8,    7.5,   0.00,   0.00, 1009.5,    0.3, -999.0
15-11-2023, 00:24:55,    227,    0.3,    7.6,   0.00,   0.00, 1009.5,    0.4, -999.0
15-11-2023, 00:25:05,    228,    0.0,    7.5,   0.00,   0.00, 1009.4,    0.7, -999.0
15-11-2023, 00:25:15,    227,    0.0,    7.5,   0.00,   0.00, 1009.4,    0.4, -999.0
15-11-2023, 00:25:25,    228,    0.5,    7.5,   0.00,   0.00, 1009.5,    0.5, -999.0
15-11-2023, 00:25:35,    228,    0.1,    7.5,   0.00,   0.00, 1009.4,    0.5, -999.0
15-11-2023, 00:25:45,    227,    0.0,    7.5,   0.00,   0.00, 1009.4,    0.6, -999.0
15-11-2023, 00:25:55,    229,    0.3,    7.5,   0.00,   0.00, 1009.5,    0.6, -999.0
15-11-2023, 00:26:05,    228,    0.2,    7.5,   0.00,   0.00, 1009.5,    0.6, -999.0
15-11-2023, 00:26:15,    228,    0.0,    7.5,   0.00,   0.00, 1009.5,    0.6, -999.0
15-11-2023, 00:26:25,    230,    0.5,    7.5,   0.00,   0.00, 1009.5,    0.9, -999.0
15-11-2023, 00:26:35,    230,    1.2,    7.6,   0.00,   0.00, 1009.6,    0.5, -999.0
15-11-2023, 00:26:45,    228,    1.1,    7.5,   0.00,   0.00, 1009.5,    0.7, -999.0
15-11-2023, 00:26:55,    229,    0.7,    7.5,   0.00,   0.00, 1009.6,    0.6, -999.0
15-11-2023, 00:27:05,    229,    0.8,    7.5,   0.00,   0.00, 1009.6,    0.5, -999.0
15-11-2023, 00:27:15,    229,    0.0,    7.5,   0.00,   0.00, 1009.5,    0.0, -999.0
15-11-2023, 00:27:25,    229,    0.0,    7.4,   0.00,   0.00, 1009.4,    0.6, -999.0
15-11-2023, 00:27:35,    228,    0.0,    7.5,   0.00,   0.00, 1009.4,    0.2, -999.0
15-11-2023, 00:27:45,    210,    0.7,    7.5,   0.00,   0.00, 1009.6,    0.6, -999.0
15-11-2023, 00:27:55,    210,    0.4,    7.5,   0.00,   0.00, 1009.5,    0.6, -999.0
15-11-2023, 00:28:05,    210,    0.0,    7.5,   0.00,   0.00, 1009.4,    0.4, -999.0
15-11-2023, 00:28:15,    210,    0.0,    7.4,   0.00,   0.00, 1009.4,    0.3, -999.0
15-11-2023, 00:28:25,    210,    0.0,    7.4,   0.00,   0.00, 1009.4,    0.4, -999.0
15-11-2023, 00:28:35,    210,    0.0,    7.4,   0.00,   0.00, 1009.5,    0.4, -999.0
15-11-2023, 00:28:45,    210,    0.0,    7.4,   0.00,   0.00, 1009.4,    0.9, -999.0
15-11-2023, 00:28:55,    210,    0.0,    7.4,   0.00,   0.00, 1009.4,    0.6, -999.0
15-11-2023, 00:29:05,    210,    0.0,    7.4,   0.00,   0.00, 1009.4,    1.1, -999.0
15-11-2023, 00:29:14,    209,    0.0,    7.4,   0.00,   0.00, 1009.4,    0.5, -999.0
15-11-2023, 00:29:25,    210,    0.0,    7.4,   0.00,   0.00, 1009.4,    0.4, -999.0
15-11-2023, 00:29:35,    210,    0.0,    7.3,   0.00,   0.00, 1009.4,    0.4, -999.0
15-11-2023, 00:29:44,    210,    0.0,    7.4,   0.00,   0.00, 1009.4,    0.6, -999.0
15-11-2023, 00:29:54,    210,    0.0,    7.4,   0.00,   0.00, 1009.4,    0.6, -999.0
15-11-2023, 00:30:05,    210,    0.0,    7.3,   0.00,   0.00, 1009.5,    0.4, -999.0
15-11-2023, 00:30:15,    210,    0.0,    7.3,   0.00,   0.00, 1009.5,    0.5, -999.0
15-11-2023, 00:30:24,    210,    0.0,    7.3,   0.00,   0.00, 1009.5,    0.5, -999.0
15-11-2023, 00:30:35,    210,    0.0,    7.3,   0.00,   0.00, 1009.5,    0.4, -999.0
15-11-2023, 00:30:45,    210,    0.0,    7.3,   0.00,   0.00, 1009.5,    0.4, -999.0
15-11-2023, 00:30:54,    210,    0.0,    7.3,   0.00,   0.00, 1009.5,    0.4, -999.0
15-11-2023, 00:31:04,    210,    0.0,    7.3,   0.00,   0.00, 1009.5,    0.5, -999.0
15-11-2023, 00:31:15,    209,    0.0,    7.3,   0.00,   0.00, 1009.4,    0.4, -999.0
15-11-2023, 00:31:25,    210,    0.0,    7.4,   0.00,   0.00, 1009.5,    0.2, -999.0
15-11-2023, 00:31:34,    210,    0.0,    7.3,   0.00,   0.00, 1009.5,    0.4, -999.0
15-11-2023, 00:31:44,    210,    0.0,    7.3,   0.00,   0.00, 1009.4,    0.6, -999.0
15-11-2023, 00:31:55,    224,    0.8,    7.3,   0.00,   0.00, 1009.6,    0.5, -999.0
15-11-2023, 00:32:04,    226,    0.9,    7.4,   0.00,   0.00, 1009.6,    0.3, -999.0
15-11-2023, 00:32:14,    225,    0.1,    7.4,   0.00,   0.00, 1009.5,    0.6, -999.0
15-11-2023, 00:32:24,    225,    0.0,    7.3,   0.00,   0.00, 1009.4,    1.1, -999.0
15-11-2023, 00:32:34,    225,    0.0,    7.3,   0.00,   0.00, 1009.5,    0.7, -999.0
15-11-2023, 00:32:44,    225,    0.0,    7.3,   0.00,   0.00, 1009.4,    0.7, -999.0
15-11-2023, 00:32:54,    226,    0.0,    7.3,   0.00,   0.00, 1009.5,    0.7, -999.0
15-11-2023, 00:33:04,    226,    0.0,    7.3,   0.00,   0.00, 1009.5,    0.2, -999.0
15-11-2023, 00:33:14,    226,    0.0,    7.3,   0.00,   0.00, 1009.5,    0.6, -999.0
15-11-2023, 00:33:24,    226,    0.1,    7.2,   0.00,   0.00, 1009.5,    0.6, -999.0
15-11-2023, 00:33:34,    226,    0.2,    7.4,   0.00,   0.00, 1009.6,    0.4, -999.0
15-11-2023, 00:33:44,    226,    0.1,    7.3,   0.00,   0.00, 1009.5,    0.5, -999.0
15-11-2023, 00:33:54,    227,    0.0,    7.3,   0.00,   0.00, 1009.5,    0.5, -999.0
15-11-2023, 00:34:04,    226,    0.1,    7.3,   0.00,   0.00, 1009.5,    0.5, -999.0
15-11-2023, 00:34:14,    226,    0.0,    7.3,   0.00,   0.00, 1009.5,    0.5, -999.0
15-11-2023, 00:34:24,    226,    0.0,    7.3,   0.00,   0.00, 1009.5,    0.6, -999.0
15-11-2023, 00:34:34,    226,    0.0,    7.3,   0.00,   0.00, 1009.5,    0.4, -999.0
15-11-2023, 00:34:44,    226,    0.0,    7.3,   0.00,   0.00, 1009.5,    0.4, -999.0
15-11-2023, 00:34:54,    226,    0.0,    7.3,   0.00,   0.00, 1009.5,    0.3, -999.0
15-11-2023, 00:35:04,    226,    0.0,    7.2,   0.00,   0.00, 1009.5,    0.5, -999.0
15-11-2023, 00:35:14,    227,    0.0,    7.2,   0.00,   0.00, 1009.6,    0.7, -999.0
15-11-2023, 00:35:24,    201,    1.9,    7.3,   0.00,   0.00, 1009.7,    0.5, -999.0
15-11-2023, 00:35:34,    186,    1.3,    7.3,   0.00,   0.00, 1009.6,    0.4, -999.0
15-11-2023, 00:35:44,    194,    1.3,    7.4,   0.00,   0.00, 1009.6,    0.3, -999.0
15-11-2023, 00:35:54,    193,    0.0,    7.3,   0.00,   0.00, 1009.5,    0.5, -999.0
15-11-2023, 00:36:04,    218,    0.4,    7.4,   0.00,   0.00, 1009.7,    0.5, -999.0
15-11-2023, 00:36:14,    218,    0.1,    7.3,   0.00,   0.00, 1009.6,    0.5, -999.0
15-11-2023, 00:36:23,    218,    0.0,    7.2,   0.00,   0.00, 1009.5,    0.2, -999.0
15-11-2023, 00:36:34,    218,    0.0,    7.3,   0.00,   0.00, 1009.5,    0.5, -999.0
15-11-2023, 00:36:44,    218,    0.0,    7.3,   0.00,   0.00, 1009.6,    0.7, -999.0
15-11-2023, 00:36:53,    218,    0.0,    7.3,   0.00,   0.00, 1009.5,    0.7, -999.0
15-11-2023, 00:37:04,    218,    0.0,    7.2,   0.00,   0.00, 1009.5,    0.5, -999.0
15-11-2023, 00:37:14,    218,    0.0,    7.2,   0.00,   0.00, 1009.5,    0.4, -999.0
15-11-2023, 00:37:24,    218,    0.0,    7.2,   0.00,   0.00, 1009.5,    0.4, -999.0
15-11-2023, 00:37:33,    218,    0.0,    7.3,   0.00,   0.00, 1009.5,    0.3, -999.0
15-11-2023, 00:37:44,    218,    0.0,    7.3,   0.00,   0.00, 1009.5,    0.6, -999.0
15-11-2023, 00:37:54,    218,    0.0,    7.3,   0.00,   0.00, 1009.5,    0.5, -999.0
15-11-2023, 00:38:03,    219,    0.2,    7.1,   0.00,   0.00, 1009.5,    0.3, -999.0
15-11-2023, 00:38:13,    219,    0.0,    7.2,   0.00,   0.00, 1009.5,    0.6, -999.0
15-11-2023, 00:38:24,    219,    0.0,    7.2,   0.00,   0.00, 1009.5,    0.4, -999.0
15-11-2023, 00:38:34,    218,    0.0,    7.2,   0.00,   0.00, 1009.5,    0.4, -999.0
15-11-2023, 00:38:43,    219,    0.0,    7.2,   0.00,   0.00, 1009.5,    0.5, -999.0
15-11-2023, 00:38:53,    219,    0.0,    7.2,   0.00,   0.00, 1009.5,    0.4, -999.0
15-11-2023, 00:39:04,    219,    0.0,    7.1,   0.00,   0.00, 1009.5,    0.5, -999.0
15-11-2023, 00:39:13,    219,    0.0,    7.2,   0.00,   0.00, 1009.5,    0.3, -999.0
15-11-2023, 00:39:23,    218,    0.0,    7.2,   0.00,   0.00, 1009.5,    0.4, -999.0
15-11-2023, 00:39:33,    219,    0.0,    7.2,   0.00,   0.00, 1009.5,    0.4, -999.0
15-11-2023, 00:39:43,    219,    0.0,    7.2,   0.00,   0.00, 1009.5,    0.4, -999.0
15-11-2023, 00:39:53,    219,    0.0,    7.1,   0.00,   0.00, 1009.6,    0.4, -999.0
15-11-2023, 00:40:03,    219,    0.0,    7.1,   0.00,   0.00, 1009.5,    0.4, -999.0
15-11-2023, 00:40:13,    220,    0.0,    7.1,   0.00,   0.00, 1009.6,    0.4, -999.0
15-11-2023, 00:40:23,    224,    0.8,    7.1,   0.00,   0.00, 1009.7,    0.4, -999.0
15-11-2023, 00:40:33,    224,    0.2,    7.1,   0.00,   0.00, 1009.6,    0.4, -999.0
15-11-2023, 00:40:43,    224,    0.0,    7.0,   0.00,   0.00, 1009.6,    0.4, -999.0
15-11-2023, 00:40:53,    224,    0.0,    7.1,   0.00,   0.00, 1009.6,    0.5, -999.0
15-11-2023, 00:41:03,    223,    0.0,    7.2,   0.00,   0.00, 1009.6,    0.4, -999.0
15-11-2023, 00:41:13,    226,    0.0,    7.1,   0.00,   0.00, 1009.6,    0.3, -999.0
15-11-2023, 00:41:23,    225,    0.0,    7.1,   0.00,   0.00, 1009.5,    0.6, -999.0
15-11-2023, 00:41:33,    225,    0.0,    7.2,   0.00,   0.00, 1009.6,    0.8, -999.0
15-11-2023, 00:41:43,    224,    0.0,    7.1,   0.00,   0.00, 1009.6,    0.6, -999.0
15-11-2023, 00:41:53,    221,    0.7,    7.2,   0.00,   0.00, 1009.7,    0.7, -999.0
15-11-2023, 00:42:03,    220,    0.2,    7.2,   0.00,   0.00, 1009.7,    0.5, -999.0
15-11-2023, 00:42:13,    206,    0.2,    7.1,   0.00,   0.00, 1009.6,    0.5, -999.0
15-11-2023, 00:42:23,    231,    1.6,    7.2,   0.00,   0.00, 1009.7,    0.5, -999.0
15-11-2023, 00:42:33,    230,    0.0,    7.2,   0.00,   0.00, 1009.6,    0.5, -999.0
15-11-2023, 00:42:43,    231,    0.0,    7.2,   0.00,   0.00, 1009.6,    0.5, -999.0
15-11-2023, 00:42:53,    230,    0.1,    7.2,   0.00,   0.00, 1009.6,    0.4, -999.0
15-11-2023, 00:43:03,    230,    0.0,    7.1,   0.00,   0.00, 1009.6,    0.6, -999.0
15-11-2023, 00:43:13,    214,    0.2,    7.1,   0.00,   0.00, 1009.7,    0.3, -999.0
15-11-2023, 00:43:23,    212,    0.2,    7.1,   0.00,   0.00, 1009.7,    0.6, -999.0
15-11-2023, 00:43:33,    212,    0.8,    7.2,   0.00,   0.00, 1009.7,    0.6, -999.0
15-11-2023, 00:43:43,    232,    1.3,    7.2,   0.00,   0.00, 1009.8,    0.5, -999.0
15-11-2023, 00:43:53,    195,    0.7,    7.2,   0.00,   0.00, 1009.7,    0.7, -999.0
15-11-2023, 00:44:02,    204,    1.4,    7.3,   0.00,   0.00, 1009.7,    0.5, -999.0
15-11-2023, 00:44:13,    205,    0.1,    7.2,   0.00,   0.00, 1009.7,    0.7, -999.0
15-11-2023, 00:44:23,    206,    0.0,    7.2,   0.00,   0.00, 1009.6,    0.4, -999.0
15-11-2023, 00:44:32,    206,    0.0,    7.2,   0.00,   0.00, 1009.6,    0.4, -999.0
15-11-2023, 00:44:43,    205,    0.0,    7.2,   0.00,   0.00, 1009.6,    0.3, -999.0
15-11-2023, 00:44:53,    210,    0.2,    7.2,   0.00,   0.00, 1009.7,    0.8, -999.0
15-11-2023, 00:45:03,    210,    0.3,    7.2,   0.00,   0.00, 1009.7,    0.6, -999.0
15-11-2023, 00:45:12,    209,    0.0,    7.1,   0.00,   0.00, 1009.6,    0.6, -999.0
15-11-2023, 00:45:23,    209,    0.0,    7.1,   0.00,   0.00, 1009.6,    0.6, -999.0
15-11-2023, 00:45:33,    243,    1.0,    7.2,   0.00,   0.00, 1009.7,    0.5, -999.0
15-11-2023, 00:45:42,    235,    1.0,    7.2,   0.00,   0.00, 1009.7,    0.6, -999.0
15-11-2023, 00:45:52,    231,    2.1,    7.2,   0.00,   0.00, 1009.8,    0.5, -999.0
15-11-2023, 00:46:03,    213,    1.3,    7.1,   0.00,   0.00, 1009.8,    0.6, -999.0
15-11-2023, 00:46:12,    224,    0.2,    7.2,   0.00,   0.00, 1009.6,    0.5, -999.0
15-11-2023, 00:46:22,    245,    2.7,    7.1,   0.00,   0.00, 1009.7,    0.6, -999.0
15-11-2023, 00:46:32,    215,    2.0,    7.3,   0.00,   0.00, 1009.8,    0.6, -999.0
15-11-2023, 00:46:43,    196,    0.5,    7.3,   0.00,   0.00, 1009.7,    0.5, -999.0
15-11-2023, 00:46:52,    195,    0.1,    7.2,   0.00,   0.00, 1009.6,    0.3, -999.0